Flag for Poland Weather for the Past 2 Weeks in Dąbrowa Górnicza, Poland

Now
63 °F

Passing clouds.


Feels Like: 63 °F
Forecast: 45 / 63 °F
Wind: 9 mph from Northeast

Location: Katowice Airport

Current Time: May 3, 2016 at 6:42:33 PM

Latest Report: May 3, 2016 at 6:00 PM


Visibility: N/A

Pressure: 29.89 "Hg

Humidity: 49%

Dew Point: 43 °F

Location of Dąbrowa GórniczaLocation

Historic Weather in Dąbrowa Górnicza — Graph

°F

Dąbrowa Górnicza Temperature Yesterday

Maximum temperature yesterday: 61 °F (at 3:00 PM)
Minimum temperature yesterday: 43 °F (at 5:00 AM)
Average temperature yesterday: 53 °F

High & Low Weather Summary for the Past Weeks

 TemperatureHumidityPressure
High64 °F (May 3, 3:00 PM)100% (Apr 19, 12:30 AM)30.30 "Hg (Apr 19, 12:30 AM)
Low23 °F (Apr 26, 6:00 AM)24% (Apr 23, 1:30 PM)29.59 "Hg (Apr 24, 12:30 AM)
Average45 °F70%29.97 "Hg
* Reported Apr 18 5:00 PM — May 3 5:30 PM, Dąbrowa Górnicza, Weather by CustomWeather, © 2016

Note: Actual official high and low records may vary slightly from our data, if they occured in-between our weather recording intervals... More about our weather records

Advertising

Dąbrowa Górnicza Weather History for the Previous 24 Hours

Scroll right to see more
 ConditionsComfort  
Time TempWeatherWind HumidityBarometerVisibility
5:30 PM
Tue, May 3
63 °FPassing clouds.8 mph52%29.89 "HgN/A
5:00 PM63 °FPassing clouds.8 mph52%29.89 "HgN/A
4:30 PM63 °FThundershowers. Passing clouds.12 mph52%29.89 "HgN/A
4:00 PM64 °FPassing clouds.12 mph46%29.89 "HgN/A
3:30 PM64 °FPassing clouds.12 mph49%29.89 "HgN/A
3:00 PM64 °FPassing clouds.13 mph49%29.89 "HgN/A
2:30 PM63 °FScattered clouds.14 mph49%29.89 "HgN/A
1:30 PM63 °FPassing clouds.13 mph59%29.92 "HgN/A
1:00 PM63 °FScattered clouds.10 mph59%29.92 "HgN/A
12:30 PM61 °FThunderstorms. Scattered clouds.10 mph68%29.92 "HgN/A
12:00 PM61 °FPassing clouds.12 mph63%29.95 "HgN/A
11:00 AM59 °FPassing clouds.9 mph68%29.95 "HgN/A
10:00 AM59 °FPassing clouds.7 mph72%29.98 "HgN/A
9:30 AM55 °FPassing clouds.6 mph82%29.98 "HgN/A
9:00 AM55 °FPassing clouds.9 mph88%29.98 "HgN/A
8:30 AM52 °FPassing clouds.3 mph94%29.98 "HgN/A
8:00 AM50 °FSunny.2 mph100%29.98 "Hg10 mi
7:30 AM48 °FFog.3 mph100%29.98 "Hg3 mi
7:00 AM48 °FFog.2 mph100%29.98 "Hg2 mi
6:30 AM46 °FFog.2 mph100%29.98 "Hg1 mi
6:00 AM46 °FFog.2 mph100%29.98 "Hg1 mi
5:30 AM46 °FFog.2 mph93%30.01 "Hg0 mi
5:00 AM45 °FFog.1 mph100%30.01 "Hg0 mi
4:30 AM45 °FFog.1 mph100%30.01 "Hg0 mi
4:00 AM45 °FFog.2 mph100%30.01 "Hg0 mi
3:00 AM45 °FFog.2 mph100%30.01 "Hg1 mi
2:30 AM46 °FFog.3 mph100%30.01 "Hg1 mi
2:00 AM48 °FFog.6 mph94%30.01 "Hg2 mi
1:30 AM48 °FFog.1 mph94%30.01 "Hg0 mi
1:00 AM48 °FFog.2 mph100%30.04 "Hg3 mi
12:00 AM50 °FPassing clouds.1 mph94%30.04 "HgN/A
11:30 PM
Mon, May 2
50 °FRain showers. Passing clouds.3 mph94%30.04 "Hg2 mi
11:00 PM52 °FSprinkles. Passing clouds.7 mph88%30.07 "HgN/A
10:30 PM52 °FPassing clouds.3 mph82%30.07 "HgN/A
10:00 PM55 °FPassing clouds.6 mph72%30.07 "HgN/A
9:30 PM54 °FPassing clouds.5 mph82%30.07 "HgN/A
9:00 PM55 °FPassing clouds.6 mph72%30.07 "HgN/A
8:30 PM55 °FScattered clouds.3 mph77%30.07 "HgN/A
8:00 PM55 °FPartly sunny.2 mph82%30.07 "HgN/A
7:30 PM55 °FPassing clouds.2 mph88%30.07 "HgN/A
7:00 PM55 °FPassing clouds.2 mph88%30.07 "HgN/A
6:30 PM55 °FScattered clouds.3 mph88%30.07 "HgN/A
6:00 PM55 °FScattered clouds.2 mph88%30.09 "HgN/A
Weather by CustomWeather, © 2016

See weather overviewHow to use our weather pages